CZ-3C DEB, 39347

Orbit data source: Space-Track

CZ-3C DEB, 39347 is space debris in HEO originally from a launch on Sun, 31 Oct 2010 UTC launched from the Xichang Space Center, China (XSC). Debris objects in space refer to the collection of defunct objects orbiting the Earth. Examples of debris include non-operational satellites, rocket bodies, and fragments generated from explosions, collisions, or faulty payload assembly.

Loading next visibility...
Identifier
39347, 2010-057M
Orbit
HEO
Country
Flag of CNCN / PRC
Related business
Manufacturer
CALT
Mission
Spacecraft
Bus & Motor
Unknown
Mass
Unknown
Launch date (UTC)
2010-10-31 (15 years ago)
Launch vehicle
Unknown
Launch site
Xichang Space Center, China (XSC)
Object type
Payload
Rocket body
Debris
Shape & HBR
Unknown shape, 0.9 m
Radar Cross Section
Large (>1 m²)

Expand to show TLE details & history
Last TLE update: 23 hours ago

TLE from 23 hours ago
0 CZ-3C DEB
1 39347U 10057M   25293.13353844  .00050135  00000-0  23731-1 0  9992
2 39347  20.3979  39.3104 6724017 201.5520 105.5205  2.98064481114792
Epoch: 2025-10-20T03:12Z
TLE epoch observation values (Epoch: 2025-10-20T03:12:17.721Z)
Latitude
0.00004°
Longitude
-37.62796°
Altitude
23,471.348 km
Speed
2.677 km/s
True Right ascension
02h 37m 08s
True Declination
0° 00' 00"
Sunlit
Object was in daylight at epoch
Visualization orbit readout
Latitude
Unknown
Longitude
Unknown
Altitude
Unknown
Speed
Unknown
Apparent Right ascension
Unknown
Apparent Declination
Unknown
Sunlit
N/A
Visualization observer readout
Local Sidereal Time
21:39:49
Azimuth
Unknown
Elevation
Unknown
Doppler factor
Unknown
Orbital elements
Apogee altitude
27,738.165 km
Perigee altitude
304.733 km
Semi-major axis
20,399.586 km
Eccentricity
0.6724
Inclination
20.3979°
RAAN
39.3104°
Arg. of periapsis
201.552°
True anomaly
158.45562°
Mean anomaly
105.5205°
Eccentric anomaly
133.47683°
Mean motion
0.74492 °/min
Orbital period
483.27 mins
BSTAR
0.023731
Loading maneuver chart data...
Computing Atmospheric mass density...
Loading historical data...
Loading historical data...
Loading historical data...
Loading historical data...
Loading historical data...
Loading historical data...
Loading historical data...

Documentation

Showing up to 5 results
|